sat.trackr.live / text

‹ back to catalog

STARLINK-2743

NORAD 48682 · 2021-044AW

PAYLOAD ACTIVE UNKNOWN

§ Identity

Operator
Country
US
Launch date
2021-05-26
Launch site
AFETR
Launch vehicle
Mass (kg)
RCS (m²)

Purposes: comms

External: N2YO · Heavens-Above · Gunter

§ Orbital elements

Epoch: 2026-09-19T15:39:17.574336Z

Period
94.01 min
Inclination
53.1598°
Eccentricity
0.0001173
Mean motion
15.31696863 rev/d
Perigee alt
469.9 km
Apogee alt
471.6 km
Semi-major
6,848.9 km
B*
1.0501e-5
RAAN
242.3370°
Arg perigee
97.5306°
Mean anomaly
262.5829°
Rev number
29,422

§ Raw data

STARLINK-27431 48682U 21044AW  26262.65228674 -.00000039  00000+0  10501-4 0  99902 48682  53.1598 242.3370 0001173  97.5306 262.5829 15.31696863294225

JSON: /api/v1/satellites/48682 · /tle

For live sub-satellite position, see the globe view (requires WebGL).

§ Visibility from observer

Set your observer location to see the next 7 days of passes ≥ 10°. The values pass through the URL so the page stays shareable.

No JS? Fill the form by hand. The geolocation button needs JavaScript.